星链-31277 (STARLINK-31277 )

导读 | 豆包AI

STARLINK-31277是美国太空探索技术公司星链星座的成员,于2024年5月3日发射入轨,属于星链网络的卫星补网任务。它依托星链低轨星座布局,服务全球高速互联网接入,可为偏远地区、海上航空等场景提供通信支持,目前已在轨道稳定运行,助力星链星座的全球覆盖与服务能力升级。

基本信息
目录编号:
59651
目录名称:
STARLINK-31277
国际标识:
2024-082W
轨道中心:
EARTH
卫星名称:
星链-31277
卫星全名:
星链-31277 (STARLINK-31277 )
卫星状态:
在轨 (已飞行727 天)
发射日期:
2024-05-03 UTC
国别 :
美国 (US)
星等 :
--
轨道信息
数据来源 国际轨道数据
星历时间: 2026-04-30T15:10:12+0800
15小时前
查看轨道信息
半长轴: 6861.21km
偏心率: 0.000111
轨道倾角: 43.002°
近地点辐角 278.948°
升交点赤经 208.455°
平近点角 81.125°
近地点: 482.311km
远地点: 483.835km
周期: 94.267分钟
每日圈数: 15.275723
详细信息
固有亮度:
5
最大亮度:
1.5
卫星平台:
Starlink v2.0 mini
覆盖范围:
全球
运营商:
太空探索技术公司
运营商所在国:
美国
制造商(研发单位):
太空探索技术公司
制造商所在国:
美国
使用方式:
暂无
卫星简介
星链(Starlink)计划是由太空探索技术公司(SpaceX)提出的一个巨型低轨卫星互联网星座项目,计划在2019年至2024年间在太空搭建由约1.2万颗卫星组成的“星链”网络,其中1584颗将部署在地球上空550千米处的近地轨道,并从2020年开始工作。该卫星仍在工作。
2D轨道图
3D轨道图
轨道高度分析图
轨道倾角分析图
轨道综合分析图
查看轨道综合分析图